[[{"header":{"parameterUnit":"m.s-1","parameterCategory":1,"la1":30.2991,"la2":30.254,"lo1":-89.0895,"lo2":-89.0444,"dy":0.0017,"dx":0.0017,"nx":28,"ny":28,"refTime":"2025-12-03T03:00:00:Z","depth":0,"parameterNumber":2,"parameterNumberName":"U-component_of_WINDS"},"data":[0,0,0,0,0,0,0,0,0,0,0,0,0,0,0,0,0,0,0,0,0,0,0,0,0,0,0,0,0,0,0,0,0,0,0,0,0,0,0,0,0,0,0,0,0,0,0,0,0,0,0,0,0,0,0,0,0,0,-4.8122,-4.8121,0,-4.8047,-4.8046,-4.8045,-4.7936,-4.7934,-4.7932,-4.793,-4.7851,-4.7851,-4.7851,0,0,0,0,0,0,0,0,0,0,0,0,0,-4.8171,-4.8171,-4.8122,-4.8121,-4.812,-4.8047,-4.8046,-4.8045,-4.7936,-4.7934,-4.7931,-4.7929,-4.7851,-4.7851,-4.7851,0,0,0,0,0,0,0,0,0,0,0,0,0,-4.8129,-4.8171,-4.8122,-4.8057,-4.805,-4.8047,-4.8046,-4.8044,-4.7936,-4.7934,-4.7931,-4.7928,-4.7852,-4.7851,-4.7851,-4.7904,0,0,-4.7849,-4.7849,0,0,0,0,0,0,0,0,-4.8131,-4.8127,-4.8068,-4.8062,-4.8054,-4.7998,-4.8034,-4.7997,-4.7937,-4.798,-4.793,-4.7927,-4.7902,-4.7897,-4.7889,-4.79,-4.7897,-4.7849,-4.7849,-4.7849,-4.7848,0,0,0,0,0,0,0,-4.8134,-4.8129,-4.8092,-4.8067,-4.8059,-4.8032,-4.8022,-4.8027,-4.7958,-4.7976,-4.7968,-4.796,-4.7898,-4.789,-4.7887,-4.7896,-4.7849,-4.7849,-4.7848,-4.7848,-4.7948,-4.7951,0,0,0,0,0,0,-4.8147,-4.8133,-4.8094,-4.809,-4.8086,-4.8033,-4.8023,-4.8019,-4.7957,-4.7945,-4.7963,-4.7956,-4.7892,-4.7887,-4.7884,-4.7942,-4.7849,-4.7848,-4.7848,-4.7945,-4.7949,-4.7952,0,0,0,0,0,0,-4.8148,-4.8145,-4.8097,-4.8109,-4.8101,-4.8035,-4.8032,-4.8019,-4.8011,-4.7948,-4.7935,-4.7968,-4.789,-4.7884,-4.79,-4.7938,-4.7848,-4.7847,-4.7941,-4.7946,-4.795,-4.8061,0,0,0,0,0,0,-4.815,-4.8146,-4.8165,-4.811,-4.8101,-4.8116,-4.8034,-4.8019,-4.801,-4.8,-4.7949,-4.7937,-4.7887,-4.7902,-4.79,-4.7936,-4.7847,-4.7938,-4.7944,-4.7949,-4.8053,-4.8068,-4.8081,0,0,0,0,0,-4.8152,-4.8199,-4.8167,-4.8163,-4.8124,-4.8118,-4.8113,-4.8055,-4.8014,-4.8033,-4.7993,-4.7939,-4.7935,-4.7904,-4.7901,-4.7938,-4.7935,-4.7942,-4.7948,-4.8047,-4.8066,-4.8081,0,0,0,0,0,0,-4.8259,-4.8191,-4.8154,-4.8184,-4.8158,-4.81,-4.8122,-4.8076,-4.806,-4.8051,-4.7979,-4.7969,-4.7994,-4.7967,-4.7934,-4.7987,-4.7927,-4.7933,-4.8003,-4.802,-4.8034,-4.8039,-4.7847,0,0,0,0,0,-4.8287,-4.8288,-4.8228,-4.826,-4.8249,-4.8189,-4.8184,-4.8141,-4.8111,-4.8099,-4.806,-4.8032,-4.8024,-4.8021,-4.801,-4.805,-4.8037,-4.8073,-4.8087,-4.8099,-4.8105,-4.8125,-4.814,-4.7974,-4.7974,-4.7973,0,0,-4.8343,-4.8305,-4.831,-4.8281,-4.8255,-4.8258,-4.818,-4.8186,-4.8187,-4.81,-4.8112,-4.8083,-4.8047,-4.8076,-4.8086,-4.8054,-4.8149,-4.8108,-4.8117,-4.8117,-4.8133,-4.8149,-4.8163,-4.7978,-4.7977,-4.7977,0,0,-4.8446,-4.8418,-4.8442,-4.8419,-4.8382,-4.8342,-4.8348,-4.8297,-4.8274,-4.8286,-4.8221,-4.8222,-4.821,-4.8187,-4.8174,-4.8272,-4.8222,-4.827,-4.8343,-4.8362,-4.8376,-4.8387,-4.8422,-4.8435,-4.8277,-4.8277,-4.8277,0,-4.852,-4.8522,-4.8461,-4.8471,-4.846,-4.8383,-4.8407,-4.8387,-4.8349,-4.8343,-4.8308,-4.8293,-4.8263,-4.8285,-4.8309,-4.8301,-4.8306,-4.8275,-4.8379,-4.8389,-4.8399,-4.8431,-4.8445,-4.8283,-4.8282,-4.8282,-4.8281,0,-4.8615,-4.8618,-4.8642,-4.8607,-4.8599,-4.8617,-4.8558,-4.8557,-4.8516,-4.848,-4.8494,-4.8456,-4.8437,-4.8439,-4.8398,-4.8456,-4.8437,-4.8392,-4.833,-4.8422,-4.8451,-4.8463,-4.8292,-4.829,-4.8288,-4.8286,0,0,-4.8782,-4.8715,-4.8725,-4.8709,-4.8663,-4.8664,-4.8678,-4.866,-4.8661,-4.8638,-4.8648,-4.8641,-4.8599,-4.8584,-4.8541,-4.8559,-4.8638,-4.8511,-4.8509,-4.8536,-4.8699,-4.8733,-4.8749,-4.8606,-4.8608,-4.8609,-4.8702,0,-4.8876,-4.8897,-4.8843,-4.8877,-4.8878,-4.8806,-4.8818,-4.8792,-4.8759,-4.8755,-4.8718,-4.8714,-4.866,-4.865,-4.8665,-4.8626,-4.867,-4.8618,-4.8614,-4.8614,-4.8625,-4.8764,-4.8799,-4.8889,-4.8713,-4.8715,-4.8716,0,-4.8988,-4.8971,-4.9006,-4.896,-4.8958,-4.8971,-4.895,-4.8948,-4.8917,-4.8892,-4.8877,-4.8827,-4.8838,-4.878,-4.8794,-4.876,-4.8755,-4.8736,-4.8738,-4.8734,-4.8671,-4.8764,-4.8916,-4.8929,-4.8734,-4.8732,-4.8731,0,-4.9106,-4.9092,-4.9111,-4.91,-4.9046,-4.9057,-4.9035,-4.9001,-4.8994,-4.8977,-4.8971,-4.8956,-4.8947,-4.8935,-4.8883,-4.8845,-4.8903,-4.884,-4.8882,-4.8884,-4.8897,-4.8896,-4.905,-4.8895,-4.8895,-4.8895,-4.8894,0,-4.9216,-4.924,-4.9164,-4.9176,-4.9201,-4.9139,-4.9165,-4.9136,-4.9107,-4.9112,-4.9048,-4.9054,-4.8985,-4.8983,-4.8942,-4.896,-4.8956,-4.8936,-4.8925,-4.8941,-4.8944,-4.8937,-4.8929,-4.8898,-4.8897,-4.8897,-4.8896,0,-4.9351,-4.9301,-4.9317,-4.9266,-4.9254,-4.9275,-4.923,-4.9239,-4.9203,-4.921,-4.9208,-4.9151,-4.9146,-4.9093,-4.9075,-4.9048,-4.9082,-4.9059,-4.9093,-4.9085,-4.913,-4.9126,-4.9283,-4.93,-4.9136,-4.9138,-4.9139,0,-4.9424,-4.9441,-4.9392,-4.9391,-4.9373,-4.9372,-4.9365,-4.9305,-4.9301,-4.9268,-4.9281,-4.9271,-4.9259,-4.9255,-4.9212,-4.9199,-4.9174,-4.923,-4.9172,-4.9189,-4.9175,-4.9174,-4.9176,-4.9242,-4.9245,-4.9246,-4.9248,0,-4.9559,-4.9534,-4.9526,-4.9511,-4.9505,-4.949,-4.9471,-4.9474,-4.9408,-4.9406,-4.9401,-4.9393,-4.9376,-4.9367,-4.9347,-4.9324,-4.9275,-4.9267,-4.9276,-4.9292,-4.9311,-4.9302,-4.9126,-4.9263,-4.9261,-4.926,-4.926,-4.9259,-4.9665,-4.9677,-4.9645,-4.9639,-4.9619,-4.9603,-4.9609,-4.9574,-4.9569,-4.9551,-4.9516,-4.9517,-4.9486,-4.9454,-4.9436,-4.9435,-4.9406,-4.9419,-4.9422,-4.9426,-4.9435,-4.9313,-4.9431,-4.943,-4.943,-4.9429,-4.9429,0,-4.9796,-4.9772,-4.9768,-4.9744,-4.974,-4.9695,-4.9673,-4.9672,-4.9673,-4.9649,-4.964,-4.9635,-4.9626,-4.9583,-4.957,-4.9578,-4.9555,-4.9576,-4.9575,-4.957,-4.9462,-4.9455,-4.9595,-4.9595,-4.9595,-4.9595,-4.9595,-4.9595,-4.9863,-4.9882,-4.9853,-4.9861,-4.9837,-4.9837,-4.9828,-4.9813,-4.9794,-4.9791,-4.9784,-4.9757,-4.9725,-4.971,-4.97,-4.9688,-4.9686,-4.9714,-4.9695,-4.9594,-4.9578,-4.9562,-4.9556,-4.9714,-4.9715,-4.9803,-4.9804,-4.9804]},{"header":{"parameterUnit":"m.s-1","parameterCategory":1,"la1":30.2991,"la2":30.254,"lo1":-89.0895,"lo2":-89.0444,"dy":0.0017,"dx":0.0017,"nx":28,"ny":28,"refTime":"2025-12-03T03:00:00:Z","depth":0,"parameterNumber":3,"parameterNumberName":"V-component_of_WINDS"},"data":[0,0,0,0,0,0,0,0,0,0,0,0,0,0,0,0,0,0,0,0,0,0,0,0,0,0,0,0,0,0,0,0,0,0,0,0,0,0,0,0,0,0,0,0,0,0,0,0,0,0,0,0,0,0,0,0,0,0,-3.6716,-3.6717,0,-3.6871,-3.6873,-3.6875,-3.6815,-3.6811,-3.6807,-3.6804,-3.6964,-3.6971,-3.6979,0,0,0,0,0,0,0,0,0,0,0,0,0,-3.6362,-3.6369,-3.6715,-3.6717,-3.6719,-3.6871,-3.6873,-3.6875,-3.6815,-3.6811,-3.6806,-3.6802,-3.6961,-3.697,-3.6979,0,0,0,0,0,0,0,0,0,0,0,0,0,-3.6516,-3.6371,-3.6715,-3.6708,-3.6708,-3.6871,-3.6873,-3.6876,-3.6816,-3.6811,-3.6805,-3.68,-3.6958,-3.6969,-3.6981,-3.7159,0,0,-3.7016,-3.702,0,0,0,0,0,0,0,0,-3.6508,-3.6529,-3.6707,-3.6708,-3.671,-3.6818,-3.6807,-3.6971,-3.6817,-3.6775,-3.6804,-3.6798,-3.692,-3.6934,-3.6975,-3.7167,-3.7174,-3.7017,-3.7023,-3.7028,-3.7032,0,0,0,0,0,0,0,-3.6497,-3.6522,-3.6777,-3.6709,-3.6711,-3.6695,-3.6711,-3.6838,-3.6876,-3.6779,-3.6775,-3.6794,-3.6919,-3.6964,-3.6978,-3.7176,-3.7016,-3.7026,-3.7033,-3.7038,-3.7517,-3.7523,0,0,0,0,0,0,-3.6486,-3.6514,-3.6772,-3.6782,-3.6593,-3.6706,-3.6724,-3.6789,-3.6874,-3.6882,-3.6798,-3.679,-3.6947,-3.6965,-3.6984,-3.7196,-3.7028,-3.7039,-3.7046,-3.7511,-3.7518,-3.7525,0,0,0,0,0,0,-3.6479,-3.651,-3.6766,-3.6647,-3.6678,-3.6718,-3.6791,-3.6795,-3.6839,-3.6889,-3.6895,-3.6837,-3.6944,-3.6968,-3.7115,-3.7201,-3.7044,-3.7055,-3.7504,-3.7513,-3.7522,-3.7623,0,0,0,0,0,0,-3.6469,-3.6507,-3.6577,-3.6649,-3.6685,-3.6896,-3.6796,-3.6802,-3.6859,-3.685,-3.6928,-3.6935,-3.6941,-3.7098,-3.7126,-3.7214,-3.7063,-3.7497,-3.7508,-3.7519,-3.7613,-3.7635,-3.7653,0,0,0,0,0,-3.6456,-3.6601,-3.6581,-3.6613,-3.6773,-3.6901,-3.6922,-3.6926,-3.6866,-3.6936,-3.6967,-3.6933,-3.7186,-3.7114,-3.7145,-3.7237,-3.7492,-3.7505,-3.7518,-3.7604,-3.763,-3.7653,0,0,0,0,0,0,-3.654,-3.661,-3.6589,-3.6761,-3.6826,-3.6891,-3.6979,-3.6955,-3.7038,-3.7026,-3.7027,-3.7045,-3.7197,-3.7231,-3.7149,-3.7412,-3.733,-3.735,-3.7384,-3.741,-3.743,-3.7419,-3.7073,0,0,0,0,0,-3.6578,-3.6677,-3.6733,-3.6879,-3.6912,-3.694,-3.6996,-3.6993,-3.706,-3.7087,-3.713,-3.7195,-3.7289,-3.7351,-3.7441,-3.7616,-3.7631,-3.7694,-3.7715,-3.7731,-3.7749,-3.784,-3.7868,-3.7568,-3.7568,-3.7568,0,0,-3.6658,-3.6709,-3.6772,-3.6897,-3.6947,-3.7048,-3.6964,-3.7076,-3.715,-3.7104,-3.7246,-3.7278,-3.7351,-3.7512,-3.7586,-3.7546,-3.7834,-3.7748,-3.7761,-3.777,-3.7857,-3.7885,-3.791,-3.7577,-3.7575,-3.7574,0,0,-3.6856,-3.6906,-3.7031,-3.7081,-3.7157,-3.7173,-3.7203,-3.7271,-3.7291,-3.7432,-3.7399,-3.7486,-3.765,-3.7702,-3.775,-3.7961,-3.7931,-3.799,-3.8097,-3.8186,-3.821,-3.8231,-3.8304,-3.833,-3.8007,-3.8007,-3.8007,0,-3.6947,-3.7099,-3.7099,-3.7212,-3.7267,-3.7228,-3.7353,-3.7402,-3.7503,-3.7541,-3.7494,-3.7695,-3.7742,-3.7913,-3.7963,-3.8004,-3.8036,-3.7982,-3.8206,-3.8227,-3.8247,-3.8317,-3.8345,-3.8014,-3.8013,-3.8012,-3.8012,0,-3.7205,-3.7311,-3.7403,-3.7499,-3.7564,-3.7683,-3.7699,-3.7764,-3.7754,-3.7774,-3.7916,-3.797,-3.8068,-3.8108,-3.8101,-3.8277,-3.8249,-3.8205,-3.8123,-3.8282,-3.8347,-3.8374,-3.8023,-3.8021,-3.8019,-3.8017,0,0,-3.7464,-3.7555,-3.7589,-3.7631,-3.7708,-3.7789,-3.7904,-3.7999,-3.8053,-3.8123,-3.8218,-3.8354,-3.8311,-3.8366,-3.8363,-3.8441,-3.8601,-3.8386,-3.8388,-3.8423,-3.8795,-3.8828,-3.8859,-3.8581,-3.8586,-3.859,-3.8788,0,-3.7667,-3.787,-3.7871,-3.8057,-3.8152,-3.8114,-3.8214,-3.8271,-3.8292,-3.8374,-3.8397,-3.8493,-3.8431,-3.8463,-3.8538,-3.8566,-3.8676,-3.8551,-3.8668,-3.8673,-3.8651,-3.8894,-3.893,-3.9115,-3.8814,-3.8819,-3.8822,0,-3.7933,-3.8009,-3.8204,-3.8263,-3.8303,-3.8394,-3.8478,-3.8558,-3.862,-3.8629,-3.8687,-3.8671,-3.8785,-3.8698,-3.8854,-3.8769,-3.8816,-3.8836,-3.8843,-3.8855,-3.8757,-3.8911,-3.9174,-3.9202,-3.8863,-3.8859,-3.8856,0,-3.81,-3.8251,-3.8386,-3.8423,-3.8497,-3.856,-3.8593,-3.865,-3.8705,-3.8778,-3.8813,-3.8899,-3.8946,-3.9011,-3.9017,-3.8953,-3.9173,-3.9087,-3.9182,-3.9182,-3.9232,-3.9229,-3.9506,-3.9263,-3.9262,-3.9262,-3.9261,0,-3.8327,-3.8448,-3.8462,-3.8546,-3.8678,-3.8675,-3.8806,-3.8834,-3.8884,-3.897,-3.8941,-3.9023,-3.9026,-3.9108,-3.9113,-3.9239,-3.9261,-3.9271,-3.927,-3.9273,-3.9272,-3.9305,-3.9292,-3.9269,-3.9267,-3.9266,-3.9265,0,-3.8538,-3.8552,-3.8697,-3.8752,-3.8769,-3.8864,-3.8911,-3.8989,-3.9005,-3.9114,-3.9139,-3.9165,-3.926,-3.9271,-3.9383,-3.9386,-3.9538,-3.9524,-3.9517,-3.9515,-3.9609,-3.9599,-3.9917,-3.9957,-3.9688,-3.9691,-3.9693,0,-3.8682,-3.8773,-3.8838,-3.8893,-3.8929,-3.9019,-3.9074,-3.9074,-3.9132,-3.9206,-3.9275,-3.9366,-3.944,-3.9593,-3.9621,-3.9704,-3.9692,-3.9797,-3.9705,-3.9703,-3.9692,-3.9686,-3.9694,-3.9815,-3.9818,-3.9821,-3.9823,0,-3.8936,-3.8937,-3.9018,-3.91,-3.9166,-3.9231,-3.9292,-3.9339,-3.9345,-3.9411,-3.9507,-3.9564,-3.9675,-3.9766,-3.9847,-3.9879,-3.9852,-3.9851,-3.9877,-3.9882,-3.9873,-3.9877,-3.9565,-3.9844,-3.9842,-3.9841,-3.984,-3.9839,-3.9117,-3.9195,-3.9251,-3.9341,-3.9385,-3.9442,-3.9517,-3.954,-3.9621,-3.9711,-3.9705,-3.981,-3.9865,-3.9971,-4.0008,-4.0089,-4.0054,-4.0093,-4.0102,-4.0112,-4.012,-3.9859,-4.0104,-4.0103,-4.0103,-4.0102,-4.0102,0,-3.9368,-3.9401,-3.9483,-3.9568,-3.9637,-3.9603,-3.9667,-3.9728,-3.9821,-3.9874,-3.9945,-4.0053,-4.0139,-4.0172,-4.0255,-4.0313,-4.0302,-4.0335,-4.0331,-4.0338,-4.0148,-4.0116,-4.0342,-4.0342,-4.0342,-4.0342,-4.0342,-4.0342,-3.9507,-3.9636,-3.9643,-3.9792,-3.9824,-3.9927,-3.9966,-4.0016,-4.0058,-4.018,-4.0251,-4.027,-4.0314,-4.0399,-4.0476,-4.0483,-4.0514,-4.0552,-4.0554,-4.0376,-4.0352,-4.0329,-4.0299,-4.0559,-4.056,-4.0737,-4.0739,-4.074]}]]